Weather History for Warrensburg, MO

Change the Weather History Date:

Friday, September 19, 2014

  Actual Average (KSZL) Record (KSZL)
Temperature  
Mean Temperature 68 °F -  
Max Temperature 78 °F 76 °F 95 °F (2000)
Min Temperature 57 °F 55 °F 44 °F (2003)
Cooling Degree Days 2    
Growing Degree Days 18 (Base 50)    
Moisture  
Dew Point 61 °F    
Average Humidity 86    
Maximum Humidity 100    
Minimum Humidity 61    
Precipitation  
Precipitation 0.00 in - - ()
Sea Level Pressure  
Sea Level Pressure 30.01 in    
Wind  
Wind Speed 5 mph (SE)    
Max Wind Speed 10 mph    
Max Gust Speed -    
Visibility 7 miles    
Events      
Averages and records for this station are not official NWS values.
T = Trace of Precipitation, MM = Missing Value Source: NWS Daily Summary

Daily Weather History Graph

Daily Weather History Graph

Search for Another Location

Airport:

Trip Planner

Search our weather history database for the weather conditions in past years. The results will help you decide how hot, cold, wet, or windy it might be!

Date:

Astronomy

Sep. 19, 2014 Rise Set
Actual Time 7:00 AM CDT 7:16 PM CDT
Civil Twilight 6:33 AM CDT 7:43 PM CDT
Nautical Twilight 6:02 AM CDT 8:14 PM CDT
Astronomical Twilight 5:30 AM CDT 8:46 PM CDT
Moon 2:48 AM CDT (9/19) 4:44 PM CDT (9/19)
Length of Visible Light 13h 09m
Length of Day
12h 16m
Waning Crescent, 18% of the Moon is Illuminated
Sep 19
Waning Crescent
Sep 24
New
Oct 1
First Quarter
Oct 8
Full
Oct 15
Last Quarter

Hourly Weather History & Observations

Time (CDT) Temp. Dew Point Humidity Pressure Visibility Wind Dir Wind Speed Gust Speed Precip Events Conditions
12:15 AM 59.0 °F 59.0 °F 100% 30.03 in 7.0 mi East 4.6 mph - N/A   Clear
12:55 AM 59.0 °F 59.0 °F 100% 30.04 in 7.0 mi SSE 3.5 mph - N/A   Clear
1:15 AM 59.0 °F 59.0 °F 100% 30.04 in 7.0 mi SSE 3.5 mph - N/A   Clear
1:35 AM 59.0 °F 57.2 °F 94% 30.04 in 4.0 mi SE 4.6 mph - N/A   Clear
1:55 AM 59.0 °F 55.4 °F 88% 30.03 in 5.0 mi ESE 4.6 mph - N/A   Clear
2:15 AM 59.0 °F 57.2 °F 94% 30.03 in 5.0 mi ESE 4.6 mph - N/A   Clear
2:35 AM 59.0 °F 57.2 °F 94% 30.03 in 5.0 mi ESE 3.5 mph - N/A   Clear
3:15 AM 59.0 °F 55.4 °F 88% 30.03 in 5.0 mi East 4.6 mph - N/A   Clear
3:35 AM 57.2 °F 55.4 °F 94% 30.02 in 4.0 mi ESE 3.5 mph - N/A   Clear
3:55 AM 57.2 °F 55.4 °F 94% 30.02 in 1.8 mi Calm Calm - N/A   Mist
4:15 AM 57.2 °F 55.4 °F 94% 30.02 in 4.0 mi East 3.5 mph - N/A   Clear
4:35 AM 57.2 °F 55.4 °F 94% 30.02 in 5.0 mi East 4.6 mph - N/A   Clear
4:55 AM 57.2 °F 55.4 °F 94% 30.03 in 4.0 mi East 3.5 mph - N/A   Clear
5:15 AM 57.2 °F 55.4 °F 94% 30.03 in 4.0 mi East 4.6 mph - N/A   Clear
5:35 AM 57.2 °F 55.4 °F 94% 30.03 in 2.5 mi East 4.6 mph - N/A   Mostly Cloudy
5:55 AM 59.0 °F 57.2 °F 94% 30.03 in 1.2 mi East 3.5 mph - N/A   Overcast
6:15 AM 59.0 °F 57.2 °F 94% 30.04 in 1.5 mi ESE 4.6 mph - N/A   Overcast
6:35 AM 59.0 °F 57.2 °F 94% 30.04 in 1.8 mi East 5.8 mph - N/A   Overcast
7:15 AM 59.0 °F 59.0 °F 100% 30.05 in 0.8 mi ESE 4.6 mph - N/A   Overcast
7:35 AM 59.0 °F 59.0 °F 100% 30.05 in 1.0 mi ESE 4.6 mph - N/A   Overcast
7:55 AM 60.8 °F 59.0 °F 94% 30.05 in 1.5 mi East 4.6 mph - N/A   Overcast
8:15 AM 60.8 °F 59.0 °F 94% 30.05 in 2.0 mi East 4.6 mph - N/A   Overcast
8:35 AM 60.8 °F 60.8 °F 100% 30.05 in 3.0 mi ESE 3.5 mph - N/A   Overcast
8:55 AM 62.6 °F 60.8 °F 94% 30.05 in 3.0 mi ESE 4.6 mph - N/A   Overcast
9:15 AM 62.6 °F 60.8 °F 94% 30.06 in 4.0 mi SE 5.8 mph - N/A   Overcast
9:35 AM 62.6 °F 62.6 °F 100% 30.06 in 4.0 mi ESE 4.6 mph - N/A   Overcast
9:55 AM 64.4 °F 62.6 °F 94% 30.06 in 5.0 mi ESE 8.1 mph - N/A   Overcast
10:15 AM 64.4 °F 62.6 °F 94% 30.05 in 7.0 mi ESE 9.2 mph - N/A   Overcast
10:55 AM 68.0 °F 60.8 °F 78% 30.05 in 10.0 mi SSE 6.9 mph - N/A   Overcast
11:15 AM 68.0 °F 60.8 °F 78% 30.04 in 10.0 mi SE 9.2 mph - N/A   Overcast
11:35 AM 68.0 °F 62.6 °F 83% 30.04 in 10.0 mi SE 10.4 mph - N/A   Overcast
11:55 AM 69.8 °F 62.6 °F 78% 30.04 in 10.0 mi SSE 6.9 mph - N/A   Overcast
12:15 PM 69.8 °F 62.6 °F 78% 30.04 in 10.0 mi ESE 8.1 mph - N/A   Overcast
12:35 PM 69.8 °F 62.6 °F 78% 30.04 in 10.0 mi SE 5.8 mph - N/A   Overcast
12:55 PM 71.6 °F 62.6 °F 73% 30.03 in 10.0 mi SE 5.8 mph - N/A   Overcast
1:15 PM 71.6 °F 64.4 °F 78% 30.03 in 10.0 mi South 5.8 mph - N/A   Overcast
1:35 PM 73.4 °F 64.4 °F 73% 30.03 in 7.0 mi South 5.8 mph - N/A   Overcast
1:55 PM 73.4 °F 64.4 °F 73% 30.02 in 10.0 mi South 5.8 mph - N/A   Overcast
2:15 PM 75.2 °F 64.4 °F 69% 30.01 in 10.0 mi SSE 8.1 mph - N/A   Mostly Cloudy
3:15 PM 77.0 °F 64.4 °F 65% 29.99 in 10.0 mi SE 8.1 mph - N/A   Scattered Clouds
3:35 PM 77.0 °F 64.4 °F 65% 29.98 in 10.0 mi SSE 8.1 mph - N/A   Scattered Clouds
3:55 PM 77.0 °F 64.4 °F 65% 29.98 in 10.0 mi South 6.9 mph - N/A   Mostly Cloudy
4:15 PM 77.0 °F 64.4 °F 65% 29.98 in 10.0 mi SSE 6.9 mph - N/A   Overcast
4:35 PM 78.8 °F 64.4 °F 61% 29.97 in 10.0 mi SE 5.8 mph - N/A   Mostly Cloudy
4:55 PM 78.8 °F 64.4 °F 61% 29.97 in 10.0 mi SSE 6.9 mph - N/A   Mostly Cloudy
5:15 PM 77.0 °F 64.4 °F 65% 29.97 in 10.0 mi SSE 4.6 mph - N/A   Mostly Cloudy
5:35 PM 75.2 °F 64.4 °F 69% 29.97 in 10.0 mi SSE 4.6 mph - N/A   Overcast
6:15 PM 73.4 °F 66.2 °F 78% 29.96 in 10.0 mi ESE 4.6 mph - N/A   Scattered Clouds
6:35 PM 73.4 °F 66.2 °F 78% 29.96 in 10.0 mi ESE 5.8 mph - N/A   Clear
6:55 PM 71.6 °F 66.2 °F 83% 29.95 in 10.0 mi ESE 4.6 mph - N/A   Clear
7:15 PM 69.8 °F 64.4 °F 83% 29.95 in 10.0 mi SE 4.6 mph - N/A   Clear
7:55 PM 68.0 °F 64.4 °F 88% 29.96 in 10.0 mi SE 4.6 mph - N/A   Scattered Clouds
8:15 PM 68.0 °F 64.4 °F 88% 29.96 in 10.0 mi SE 4.6 mph - N/A   Scattered Clouds
8:35 PM 68.0 °F 64.4 °F 88% 29.96 in 10.0 mi SE 4.6 mph - N/A   Clear
8:55 PM 68.0 °F 64.4 °F 88% 29.96 in 10.0 mi SSE 5.8 mph - N/A   Clear
9:15 PM 68.0 °F 64.4 °F 88% 29.96 in 10.0 mi SSE 5.8 mph - N/A   Clear
9:55 PM 68.0 °F 64.4 °F 88% 29.96 in 10.0 mi SSE 4.6 mph - N/A   Clear
10:15 PM 68.0 °F 64.4 °F 88% 29.97 in 10.0 mi SSE 4.6 mph - N/A   Clear
10:35 PM 68.0 °F 62.6 °F 83% 29.98 in 10.0 mi South 4.6 mph - N/A   Clear
10:55 PM 66.2 °F 62.6 °F 88% 29.97 in 10.0 mi South 5.8 mph - N/A   Clear
11:15 PM 66.2 °F 62.6 °F 88% 29.97 in 10.0 mi South 4.6 mph - N/A   Clear
11:35 PM 66.2 °F 62.6 °F 88% 29.97 in 10.0 mi South 5.8 mph - N/A   Clear
11:55 PM 66.2 °F 62.6 °F 88% 29.96 in 10.0 mi South 6.9 mph - N/A   Clear